Location: Khawr as Sal?m
(22.3500°N, 31.6833°E)
Time: 06:54:01
(UTC+00:00)

Daily predictions for brighter satellites

Satellite Brightness Start Highest point End
(mag) Time Altitude Azimuth Time Altitude Azimuth Time Altitude Azimuth
Cosmos 841 Rocket 3.5 16:37:50 10° NNW 16:42:59 89° E 16:48:06 10° SSE
Cosmos 1844 4.1 16:38:50 10° SSW 16:44:34 73° WNW 16:50:15 10° NNE
FALCON 9 DEB 4.4 16:44:32 10° N 16:47:02 23° NE 16:49:31 10° ESE
Cosmos 1689 Rocket 2.2 16:57:58 10° N 17:00:43 72° WNW 17:03:29 10° SSW
HJ-1C 3.3 16:59:20 10° SSE 17:02:37 70° ENE 17:05:56 10° N
Cosmos 1500 Rocket 4.1 16:59:19 10° NNE 17:03:19 36° E 17:07:16 10° SSE
OAO 3 Rocket 3.6 17:02:35 10° WSW 17:07:11 61° NNW 17:11:47 10° NE
IRS-1C Rocket 4.4 17:02:03 10° S 17:07:17 73° WSW 17:12:32 10° NNW
MOS 1-B Rocket 4.3 17:03:43 10° NNE 17:09:50 46° E 17:15:19 10° S
ARGOS 3.3 17:05:16 10° S 17:10:36 79° WSW 17:15:58 10° NNW
DMSP B5D2-2 4.3 17:07:46 10° N 17:13:02 76° WNW 17:18:17 10° SSW
Cosmos 2208 Rocket 4.2 17:08:37 10° NNW 17:14:04 85° WSW 17:19:30 10° SSE
PEGASUS R/B 4.2 17:12:10 14° SE 17:14:40 37° ENE 17:16:57 10° N
Cosmos 1503 Rocket 4.2 17:10:26 10° SSW 17:15:34 74° WNW 17:20:45 10° N
YAOGAN 1 3.4 17:11:40 10° S 17:15:52 52° W 17:20:06 10° NNW
H-2A R/B 3.5 17:12:22 10° SSW 17:16:51 36° W 17:21:21 10° NNW
Cosmos 1242 Rocket 2.8 17:13:54 10° SSE 17:17:19 44° E 17:20:43 10° NNE
Cosmos 1151 Rocket 4.2 17:16:56 16° SE 17:19:06 23° E 17:22:32 10° NE
Sich 1 4.4 17:16:17 10° NNE 17:19:33 20° E 17:20:52 18° ESE
Mugunghwa Rocket 4.1 17:13:44 10° W 17:20:00 73° NNW 17:26:30 10° ENE
Okean-O 3.2 17:18:21 10° S 17:22:42 59° W 17:27:04 10° NNW
S3M 4.0 17:17:24 10° S 17:23:44 69° E 17:30:02 10° N
OBJECT-B 2.1 17:25:52 22° E 17:26:19 23° ENE 17:28:56 10° NNE
BREEZE-M (TANK) 3.6 17:16:22 10° NW 17:26:42 56° NE 17:28:43 23° ESE
FALCON 9 DEB 3.1 17:24:15 10° NW 17:27:13 59° SW 17:28:50 23° SSE
SL-4 R/B 2.4 17:24:22 10° NNW 17:28:47 61° NE 17:31:29 24° ESE
SL-08 RB Rocket 4.2 17:25:30 10° S 17:30:00 62° W 17:34:29 10° NNW
FALCON 9 DEB 3.6 17:28:24 10° NW 17:31:18 44° SW 17:32:51 22° S
Cosmos 2315 Rocket 4.5 17:30:08 11° SSE 17:35:52 40° E 17:41:45 10° NNE
Meteor 1-26 Rocket 4.3 17:31:50 10° S 17:37:27 55° E 17:42:53 10° NNE
GEOS 3 Rocket 3.7 17:34:28 21° SE 17:38:02 68° ENE 17:43:23 10° NNW
CZ-2C R/B 1.5 17:35:31 10° SW 17:39:21 42° SSE 17:40:13 36° ESE
ISS -3.4 17:36:10 10° SW 17:39:28 67° NW 17:42:48 10° NE
ASTRO E2 3.3 17:38:42 10° WNW 17:42:31 45° SSW 17:43:52 32° SSE
GPS 2-17 Rocket1 3.1 17:38:32 10° W 17:43:12 67° S 17:45:12 34° ESE
Tianhe-1 3.8 17:41:46 10° W 17:44:10 20° NNW 17:46:35 10° NNE
Haruka 3.7 17:31:58 10° WNW 17:46:01 76° SSW 17:48:18 31° SE
USA 290 2.9 17:45:14 10° N 17:47:53 37° NE 17:47:53 37° NE
Delta 168 4.5 17:42:16 10° WNW 17:48:53 83° SSW 17:54:42 27° ESE
FALCON 9 DEB 3.9 17:46:48 10° WNW 17:49:38 36° SW 17:50:16 32° SSW
ERS-2 4.4 17:47:41 10° NNW 17:50:43 26° WNW 17:53:45 10° SW
BREEZE-M DEB (TANK) 4.0 17:49:00 10° N 17:51:22 24° NE 17:51:35 24° ENE
Cosmos 2278 Rocket 2.1 17:46:46 10° SSW 17:52:25 80° ESE 17:58:04 10° NNE
Cosmos 836 Rocket 4.4 17:49:33 10° N 17:54:49 73° ENE 17:57:06 34° SSE
MetOp-A 4.2 17:50:52 17° S 17:55:04 80° WSW 18:00:26 10° NNW
Resurs 01 Rocket 3.4 17:57:14 18° NE 17:57:14 18° NE 17:59:21 10° NNE
IRS-1A Rocket 4.5 18:00:00 38° SE 18:01:53 53° ENE 18:07:32 10° N
GPS 2-18 Rocket1 3.3 17:59:15 10° W 18:02:39 52° SSW 18:02:39 52° SSW
Meteor 1-20 Rocket 4.1 17:58:15 10° N 18:03:43 67° E 18:05:31 42° SSE
Helios 1A Rocket 4.5 18:08:43 16° SSW 18:11:28 33° W 18:15:11 10° NW
USA 267 3.2 18:09:19 40° SE 18:11:55 76° NE 18:18:28 10° NW
ATLAS 5 CENTAUR R/B 2.8 18:07:26 10° NNW 18:13:38 56° ENE 18:15:21 45° ESE
Cosmos 1328 Rocket 3.6 18:14:45 49° SSW 18:15:53 78° W 18:20:18 10° N
Cosmos 1805 Rocket 4.4 18:11:49 10° NNW 18:16:01 47° W 18:17:55 28° SSW
Cosmos 1633 Rocket 3.8 18:15:48 10° N 18:19:01 41° NE 18:19:01 41° NE
SPOT 3 Rocket 4.4 18:24:07 34° NE 18:24:07 34° NE 18:27:54 10° N
Cosmos 1812 4.5 18:27:34 25° NNE 18:27:34 25° NNE 18:29:15 10° N
Cosmos 1782 4.3 18:24:42 23° SW 18:26:30 35° W 18:30:10 10° NNW
Delta 202 3.7 18:23:05 10° W 18:28:15 57° SSW 18:28:15 57° SSW
Meteor 2-17 Rocket 4.4 18:30:45 10° N 18:36:53 84° W 18:37:59 62° S
Cosmos 1833 Rocket 4.0 18:33:31 10° N 18:37:04 27° NE 18:37:04 27° NE
Resurs 1-3 4.3 18:41:12 52° WNW 18:41:12 52° WNW 18:44:55 10° NNW
SJ 16-02 2.5 18:44:57 41° W 18:45:12 41° WNW 18:49:23 10° N
CZ-4C R/B 3.5 18:43:24 10° NNW 18:51:03 47° ENE 18:51:33 47° ENE
Ariane Rocket 4.2 18:58:44 36° WSW 18:58:51 36° W 19:03:29 10° NNW
Milstar 3 4.1 18:57:03 10° W 19:13:34 66° N 19:17:43 38° ENE
Mugunghwa Rocket 4.4 19:09:45 10° WNW 19:15:26 58° NNW 19:15:26 58° NNW
Cosmos 2082 Rocket 4.1 19:19:37 10° N 19:21:46 22° NNE 19:21:46 22° NNE
Cosmos 1943 Rocket 4.4 19:33:41 16° NNE 19:33:41 16° NNE 19:34:44 10° NNE
Resurs 01 Rocket 4.3 19:34:48 16° WNW 19:34:48 16° WNW 19:36:05 10° NW
SL-16 R/B 4.0 23:46:22 31° N 23:46:22 31° N 23:49:26 10° N
Cosmos 1980 Rocket 4.1 23:51:51 24° NNE 23:51:51 24° NNE 23:54:02 10° NNE
Atlas Centaur 2 3.7 23:51:28 41° E 23:51:28 41° E 23:55:53 10° ENE
